Retour au catalogue

CHECKMATE 1

ActifMilitairePO
NORAD 56168·PAYLOAD·🇺🇸 United States

Lancé Apr 2, 2023 depuis Vandenberg Space Force Base

Loading…

Prochains Passages (prochaines 24 heures)

TLE

FraisSource: Space-Track

Époque: Sep 14, 2026, 04:36 UTC

1 56168U 23050G   26257.19213473  .00000068  00000-0  50350-4 0  9999
2 56168  81.0080 346.6181 0012260 107.8795 252.3700 13.84958852174411

Suivez CHECKMATE 1 en temps réel avec AllMySat

Download on the App Store